Regional Weather Roundup
Issued by NWS Green Bay, WI

Home | Current Version | Previous Version | Graphics & Text | Print | Product List | Glossary Off
Versions: 1 2 3 4 5 6 7 8 9 10 11 12 13 14 15 16 17 18 19 20 21 22 23 24 25 26 27 28 29 30 31 32 33 34 35 36 37 38 39 40 41 42 43 44 45 46 47 48 49 50

305
ASUS43 KGRB 251900
RWRGRB

NORTH-CENTRAL AND NORTHEAST WISCONSIN REGIONAL WEATHER ROUNDUP
NATIONAL WEATHER SERVICE GREEN BAY WI
200 PM CDT TUE APR 25 2017

WIZ005-009-010>012-018-019-252000-
NORTH CENTRAL WISCONSIN

CITY           SKY/WX    TMP DP  RH WIND       PRES   REMARKS
IRONWOOD       PTSUNNY   64  38  38 N13G20    29.58S
MANITOWISH WTR CLOUDY    72  38  29 S10       29.57F
ARBOR VITAE    NOT AVBL
EAGLE RIVER    NOT AVBL
LAND O LAKES   NOT AVBL
RHINELANDER    MOSUNNY   75  37  25 S10G24    29.58F
PHILLIPS       PTSUNNY   72  40  31 SW10      29.54F
ANTIGO         NOT AVBL
TOMAHAWK       NOT AVBL
MERRILL        NOT AVBL
$$

WIZ013-073-252000-
NORTHEAST WISCONSIN

CITY           SKY/WX    TMP DP  RH WIND       PRES   REMARKS
IRON MOUNTAIN  MOSUNNY   73  39  29 SE12G23   29.61F
MARINETTE      CLOUDY    61  50  67 S13G21    29.66F
$$

WIZ017-030-035>037-045-252000-
CENTRAL WISCONSIN

CITY           SKY/WX    TMP DP  RH WIND       PRES   REMARKS
MEDFORD        NOT AVBL
WAUSAU         MOSUNNY   73  40  30 SE10      29.55F
MOSINEE        NOT AVBL
MARSHFIELD     CLOUDY    73  39  29 S9        29.55F
WISC RAPIDS    PTSUNNY   76  40  27 S14G20    29.57F
STEVENS POINT  NOT AVBL
WAUPACA        NOT AVBL
SHAWANO        MOSUNNY   75  45  34 S8G16     29.61F
CLINTONVILLE   MOSUNNY   72  45  37 SE12      29.60F
WAUTOMA        PTSUNNY   76  42  29 S14G21      N/A
$$

WIZ038-039-048-051-252000-
FOX VALLEY

CITY           SKY/WX    TMP DP  RH WIND       PRES   REMARKS
NWS GREEN BAY  CLOUDY    72  53  51 SE15      29.62F
APPLETON       MOSUNNY   73  41  31 SE14      29.60F
OSHKOSH        MOSUNNY   74  45  35 S18       29.60F
FOND DU LAC    MOSUNNY   74  42  31 S18       29.61S
$$

WIZ022-050-052-252000-
EAST CENTRAL WISCONSIN

CITY           SKY/WX    TMP DP  RH WIND       PRES   REMARKS
EPHRAIM        NOT AVBL
WASHINGTON ISL FAIR      59  48  66 S9G16     29.70F
STURGEON BAY   MOSUNNY   60  51  72 S21G26    29.66F
MANITOWOC      NOT AVBL
SHEBOYGAN      MOSUNNY   62  53  72 SE12      29.66F
$$

LMZ563-521-522-541>543-252000-
LAKESHORE

STATION/POSITION TIME  TEMP    WIND        PRES    VSBY  WAVE
                       AIR SEA DIR/SP/G                  HT/PER
                 (UTC) (F)     (DEG/KT/KT) (MB)    (MI)  (FT/S)
SHEBOYGAN LKSHOR 1800   44     150/  5/  6 1005.1F
KEWAUNEE LKSHORE 1830   47     160/  5/  7 1005.0F
NORTHPORT PIER   1840   45     130/ 11/ 17 1005.8S
N MID LAKE BUOY  1750   42 37  110/  4/  6 1007.8R         2/ 4
SISTER BAY LKSHO 1806   61     180/ 26/ 30   N/A
CHAMBERS ISLAND  1840   62     130/ 10/ 16 1004.1F
MENOMINEE LKSHOR 1830   51     130/ 11/ 12 1003.9F
$$




USA.gov is the U.S. government's official web portal to all federal, state and local government web resources and services.